Date String (YYYY-MM-DD hh:mm:ss) UTC,Instrument flags,Ambient pressure (hPa),Sample flow (lpm),Bypass flow (lpm),Sample temperature (°C),Ambient temperature (°C),ASC tube jacket temperature (°C),LED temperature (°C),Box temperature (°C),Sample RH (%),Span deviation,Mass concentration (μg/m³),Mass concentration (μg/m³),Mass concentration (μg/m³)
DateTimeUTC,F1_M11,P_M11,Q1_M11,Q2_M11,T1_M11,T2_M11,T3_M11,T4_M11,T5_M11,U1_M11,ZSPAN_M11,X0_M11,X2_M11,X1_M11
2022-06-23 23:00:00,,0824.1,4.99,0.00,29.0,27.2,00.0,37.7,30.8,12.7,0000.0,0016.62,0006.40,0005.31
2022-06-23 23:01:00,,0824.1,5.01,0.00,29.0,27.4,00.0,37.7,30.9,12.0,0000.0,0017.19,0006.42,0005.34
2022-06-23 23:02:00,,0824.1,5.01,0.00,29.0,27.6,00.0,37.7,31.0,12.5,0000.0,0017.16,0006.48,0005.36
2022-06-23 23:03:00,,0824.1,5.00,0.00,29.0,27.8,00.0,37.8,31.0,12.3,0000.0,0016.61,0006.55,0005.38
2022-06-23 23:04:00,,0824.1,4.99,0.00,29.1,28.0,00.0,37.8,31.1,11.9,0000.0,0016.50,0006.60,0005.40
2022-06-23 23:05:00,,0824.1,4.99,0.00,29.1,28.1,00.0,37.8,31.1,12.0,0000.0,0017.45,0006.64,0005.42
2022-06-23 23:06:00,,0824.1,5.00,0.00,29.1,27.6,00.0,37.8,31.0,11.9,0000.0,0018.29,0006.61,0005.43
2022-06-23 23:07:00,,0824.1,5.00,0.00,29.0,27.1,00.0,37.7,30.8,11.9,0000.0,0018.05,0006.56,0005.44
2022-06-23 23:08:00,,0824.1,5.00,0.00,29.0,27.0,00.0,37.7,30.8,12.4,0000.0,0018.07,0006.55,0005.43
2022-06-23 23:09:00,,0824.0,5.01,0.00,29.0,27.1,00.0,37.7,30.8,12.0,0000.0,0017.75,0006.54,0005.44
2022-06-23 23:10:00,,0824.1,5.01,0.00,29.0,27.3,00.0,37.7,30.8,12.4,0000.0,0018.16,0006.56,0005.45
2022-06-23 23:11:00,,0824.1,5.00,0.00,29.0,27.5,00.0,37.7,30.9,12.6,0000.0,0017.32,0006.58,0005.46
2022-06-23 23:12:00,,0824.0,4.98,0.00,29.0,27.7,00.0,37.7,31.0,12.4,0000.0,0016.65,0006.56,0005.46
2022-06-23 23:13:00,,0824.1,5.01,0.00,29.0,27.9,00.0,37.8,31.0,12.4,0000.0,0016.24,0006.58,0005.48
2022-06-23 23:14:00,,0824.0,5.01,0.00,29.1,28.0,00.0,37.8,31.1,12.4,0000.0,0015.62,0006.57,0005.50
2022-06-23 23:15:00,,0824.1,4.99,0.00,29.1,28.2,00.0,37.8,31.2,12.4,0000.0,0015.55,0006.56,0005.51
2022-06-23 23:16:00,,0824.0,5.00,0.00,29.1,27.8,00.0,37.8,31.1,12.8,0000.0,0014.75,0006.55,0005.51
2022-06-23 23:17:00,,0824.0,5.01,0.00,29.1,27.2,00.0,37.7,30.9,12.2,0000.0,0013.93,0006.59,0005.51
2022-06-23 23:18:00,,0824.0,5.00,0.00,29.0,27.1,00.0,37.7,30.8,12.9,0000.0,0014.23,0006.65,0005.52
2022-06-23 23:19:00,,0824.0,4.99,0.00,29.0,27.1,00.0,37.7,30.8,13.1,0000.0,0014.56,0006.65,0005.53
2022-06-23 23:20:00,,0824.0,5.00,0.00,29.0,27.3,00.0,37.7,30.9,13.3,0000.0,0014.39,0006.64,0005.52
2022-06-23 23:21:00,,0824.0,5.00,0.00,29.0,27.5,00.0,37.7,30.9,13.3,0000.0,0014.17,0006.59,0005.51
2022-06-23 23:22:00,,0824.0,4.99,0.00,29.0,27.7,00.0,37.8,31.0,12.6,0000.0,0014.66,0006.58,0005.52
2022-06-23 23:23:00,,0824.1,5.00,0.00,29.1,27.9,00.0,37.8,31.1,12.4,0000.0,0014.83,0006.60,0005.52
2022-06-23 23:24:00,,0824.1,5.00,0.00,29.1,28.1,00.0,37.8,31.1,13.1,0000.0,0016.64,0006.54,0005.50
2022-06-23 23:25:00,,0824.0,5.00,0.00,29.1,28.1,00.0,37.8,31.1,13.2,0000.0,0016.96,0006.51,0005.48
2022-06-23 23:26:00,,0824.0,5.00,0.00,29.1,27.4,00.0,37.8,30.9,12.4,0000.0,0017.01,0006.48,0005.46
2022-06-23 23:27:00,,0824.0,5.01,0.00,29.0,27.0,00.0,37.7,30.8,12.1,0000.0,0017.42,0006.50,0005.47
2022-06-23 23:28:00,,0824.0,4.98,0.00,29.0,27.1,00.0,37.7,30.8,11.9,0000.0,0017.69,0006.49,0005.46
2022-06-23 23:29:00,,0823.9,4.99,0.00,29.0,27.2,00.0,37.7,30.8,11.8,0000.0,0017.27,0006.48,0005.45
2022-06-23 23:30:00,,0824.0,5.01,0.00,29.0,27.3,00.0,37.7,30.9,11.8,0000.0,0016.64,0006.52,0005.45
2022-06-23 23:31:00,,0824.0,5.01,0.00,29.0,27.5,00.0,37.7,30.9,12.0,0000.0,0016.44,0006.53,0005.45
2022-06-23 23:32:00,,0823.9,5.00,0.00,29.0,27.7,00.0,37.7,31.0,11.5,0000.0,0016.69,0006.57,0005.46
2022-06-23 23:33:00,,0824.0,5.00,0.00,29.1,27.9,00.0,37.8,31.1,11.7,0000.0,0017.00,0006.62,0005.44
2022-06-23 23:34:00,,0824.0,5.00,0.00,29.1,28.1,00.0,37.8,31.1,11.7,0000.0,0016.23,0006.58,0005.43
2022-06-23 23:35:00,,0824.0,5.00,0.00,29.1,28.2,00.0,37.8,31.2,11.8,0000.0,0016.57,0006.57,0005.44
2022-06-23 23:36:00,,0823.9,5.00,0.00,29.1,27.6,00.0,37.8,31.0,12.2,0000.0,0015.84,0006.57,0005.45
2022-06-23 23:37:00,,0824.0,5.01,0.00,29.1,27.1,00.0,37.7,30.8,12.0,0000.0,0016.25,0006.61,0005.46
2022-06-23 23:38:00,,0824.0,5.00,0.00,29.0,27.1,00.0,37.7,30.8,11.5,0000.0,0017.01,0006.62,0005.44
2022-06-23 23:39:00,,0824.0,5.00,0.00,29.0,27.2,00.0,37.7,30.8,12.2,0000.0,0016.87,0006.60,0005.44
2022-06-23 23:40:00,,0823.9,5.00,0.00,29.0,27.3,00.0,37.7,30.9,12.2,0000.0,0016.85,0006.59,0005.44
2022-06-23 23:41:00,,0824.0,5.00,0.00,29.0,27.5,00.0,37.7,30.9,12.0,0000.0,0017.10,0006.53,0005.43
2022-06-23 23:42:00,,0824.0,5.01,0.00,29.0,27.7,00.0,37.8,31.0,12.2,0000.0,0017.42,0006.50,0005.42
2022-06-23 23:43:00,,0824.0,5.00,0.00,29.1,27.9,00.0,37.8,31.1,12.3,0000.0,0017.77,0006.49,0005.41
2022-06-23 23:44:00,,0824.0,4.99,0.00,29.1,28.1,00.0,37.8,31.1,12.1,0000.0,0017.25,0006.46,0005.41
2022-06-23 23:45:00,,0824.0,5.01,0.00,29.2,28.2,00.0,37.8,31.2,12.0,0000.0,0016.91,0006.44,0005.40
2022-06-23 23:46:00,,0823.9,5.00,0.00,29.1,27.7,00.0,37.8,31.0,12.0,0000.0,0016.42,0006.43,0005.39
2022-06-23 23:47:00,,0823.9,5.00,0.00,29.1,27.1,00.0,37.7,30.9,11.6,0000.0,0016.03,0006.43,0005.38
2022-06-23 23:48:00,,0823.9,5.00,0.00,29.0,27.0,00.0,37.7,30.8,11.6,0000.0,0015.86,0006.42,0005.38
2022-06-23 23:49:00,,0823.9,4.99,0.00,29.0,27.1,00.0,37.7,30.8,11.4,0000.0,0014.96,0006.34,0005.38
2022-06-23 23:50:00,,0823.9,5.00,0.00,29.0,27.3,00.0,37.7,30.9,11.6,0000.0,0015.01,0006.36,0005.39
2022-06-23 23:51:00,,0823.8,5.01,0.00,29.0,27.5,00.0,37.7,30.9,11.6,0000.0,0015.10,0006.35,0005.39
2022-06-23 23:52:00,,0823.9,5.00,0.00,29.0,27.7,00.0,37.8,31.0,11.5,0000.0,0014.98,0006.35,0005.40
2022-06-23 23:53:00,,0823.9,5.01,0.00,29.1,27.9,00.0,37.8,31.1,11.6,0000.0,0014.41,0006.35,0005.41
2022-06-23 23:54:00,,0823.9,5.00,0.00,29.1,28.0,00.0,37.8,31.1,11.9,0000.0,0013.65,0006.34,0005.42
2022-06-23 23:55:00,,0823.9,5.00,0.00,29.1,28.2,00.0,37.8,31.2,11.7,0000.0,0013.78,0006.31,0005.42
2022-06-23 23:56:00,,0823.9,5.00,0.00,29.2,27.7,00.0,37.8,31.1,11.8,0000.0,0015.06,0006.33,0005.41
2022-06-23 23:57:00,,0823.9,5.00,0.00,29.1,27.0,00.0,37.7,30.9,12.1,0000.0,0014.47,0006.37,0005.42
2022-06-23 23:58:00,,0823.9,5.00,0.00,29.0,26.9,00.0,37.7,30.8,12.8,0000.0,0015.12,0006.36,0005.42
2022-06-23 23:59:00,,0823.9,5.00,0.00,29.0,27.0,00.0,37.7,30.8,12.9,0000.0,0015.18,0006.28,0005.41
